Hourly Weather Ayia Napa

Today, 7 July, Tuesday

Time Temperature Precipitation Wind Pressure Humidity
00:00 +27°C° 0 mm 2 mps 748 mmHg 80%
01:00 +26°C° 0 mm 2 mps 748 mmHg 79%
02:00 +26°C° 0 mm 3 mps 748 mmHg 79%
03:00 +26°C° 0 mm 3 mps 748 mmHg 81%
04:00 +25°C° 0 mm 2 mps 748 mmHg 84%
05:00 +25°C° 0 mm 2 mps 749 mmHg 86%
06:00 +27°C° 0 mm 2 mps 749 mmHg 73%
07:00 +30°C° 0 mm 2 mps 749 mmHg 60%
08:00 +32°C° 0 mm 2 mps 750 mmHg 47%
09:00 +34°C° 0 mm 3 mps 750 mmHg 42%
10:00 +36°C° 0 mm 3 mps 750 mmHg 37%
11:00 +37°C° 0 mm 4 mps 751 mmHg 32%
12:00 +37°C° 0 mm 5 mps 751 mmHg 31%
13:00 +37°C° 0 mm 5 mps 751 mmHg 30%
14:00 +38°C° 0 mm 6 mps 751 mmHg 29%
15:00 +36°C° 0 mm 6 mps 751 mmHg 31%
16:00 +35°C° 0 mm 6 mps 750 mmHg 34%
17:00 +35°C° 0 mm 6 mps 750 mmHg 37%
18:00 +32°C° 0 mm 6 mps 750 mmHg 47%
19:00 +29°C° 0 mm 5 mps 751 mmHg 58%
20:00 +27°C° 0 mm 4 mps 751 mmHg 69%
21:00 +26°C° 0 mm 4 mps 751 mmHg 71%
22:00 +26°C° 0 mm 3 mps 751 mmHg 74%
23:00 +25°C° 0 mm 3 mps 751 mmHg 77%

Tomorrow, 8 July, Wednesday

Time Temperature Precipitation Wind Pressure Humidity
00:00 +25°C° 0 mm 3 mps 751 mmHg 79%
01:00 +24°C° 0 mm 2 mps 751 mmHg 81%
02:00 +24°C° 0 mm 2 mps 751 mmHg 83%
03:00 +24°C° 0 mm 2 mps 751 mmHg 84%
04:00 +23°C° 0 mm 2 mps 751 mmHg 85%
05:00 +23°C° 0 mm 2 mps 752 mmHg 87%
06:00 +25°C° 0 mm 2 mps 752 mmHg 76%
07:00 +27°C° 0 mm 2 mps 752 mmHg 65%
08:00 +29°C° 0 mm 1 mps 752 mmHg 54%
09:00 +30°C° 0 mm 3 mps 753 mmHg 50%
10:00 +33°C° 0 mm 4 mps 753 mmHg 46%
11:00 +34°C° 0 mm 5 mps 753 mmHg 42%
12:00 +34°C° 0 mm 5 mps 753 mmHg 42%
13:00 +34°C° 0 mm 6 mps 753 mmHg 43%
14:00 +34°C° 0 mm 6 mps 753 mmHg 43%
15:00 +34°C° 0 mm 6 mps 753 mmHg 46%
16:00 +33°C° 0 mm 6 mps 752 mmHg 49%
17:00 +32°C° 0 mm 7 mps 752 mmHg 52%
18:00 +30°C° 0 mm 6 mps 752 mmHg 59%
19:00 +28°C° 0 mm 6 mps 752 mmHg 66%
20:00 +27°C° 0 mm 5 mps 753 mmHg 73%
21:00 +26°C° 0 mm 5 mps 753 mmHg 77%
22:00 +26°C° 0 mm 4 mps 753 mmHg 81%
23:00 +25°C° 0 mm 4 mps 753 mmHg 84%

Day after tomorrow, 9 July, Thursday

Time Temperature Precipitation Wind Pressure Humidity
00:00 +25°C° 0 mm 3 mps 753 mmHg 86%
01:00 +25°C° 0 mm 3 mps 753 mmHg 88%
02:00 +24°C° 0 mm 3 mps 752 mmHg 90%
03:00 +24°C° 0 mm 3 mps 752 mmHg 91%
04:00 +22°C° 0 mm 3 mps 752 mmHg 92%
05:00 +23°C° 0 mm 2 mps 752 mmHg 92%
06:00 +25°C° 0 mm 2 mps 752 mmHg 81%
07:00 +27°C° 0 mm 2 mps 752 mmHg 71%
08:00 +30°C° 0 mm 1 mps 753 mmHg 60%
09:00 +31°C° 0 mm 2 mps 753 mmHg 52%
10:00 +34°C° 0 mm 3 mps 753 mmHg 44%
11:00 +35°C° 0 mm 3 mps 753 mmHg 37%
12:00 +36°C° 0 mm 4 mps 753 mmHg 38%
13:00 +36°C° 0 mm 4 mps 753 mmHg 40%
14:00 +36°C° 0 mm 5 mps 752 mmHg 42%
15:00 +35°C° 0 mm 5 mps 752 mmHg 44%
16:00 +34°C° 0 mm 6 mps 752 mmHg 47%
17:00 +33°C° 0 mm 6 mps 752 mmHg 50%
18:00 +30°C° 0 mm 5 mps 752 mmHg 59%
19:00 +29°C° 0 mm 5 mps 752 mmHg 69%
20:00 +27°C° 0 mm 4 mps 752 mmHg 78%
21:00 +27°C° 0 mm 4 mps 752 mmHg 79%
22:00 +26°C° 0 mm 3 mps 752 mmHg 79%
23:00 +26°C° 0 mm 3 mps 752 mmHg 80%

10 July, Friday

Time Temperature Precipitation Wind Pressure Humidity
00:00 +25°C° 0 mm 3 mps 752 mmHg 82%
01:00 +25°C° 0 mm 3 mps 751 mmHg 83%
02:00 +24°C° 0 mm 2 mps 751 mmHg 84%
03:00 +24°C° 0 mm 2 mps 751 mmHg 85%
04:00 +23°C° 0 mm 2 mps 751 mmHg 86%
05:00 +23°C° 0 mm 1 mps 751 mmHg 87%
06:00 +26°C° 0 mm 1 mps 752 mmHg 74%
07:00 +28°C° 0 mm 2 mps 752 mmHg 62%
08:00 +31°C° 0 mm 2 mps 752 mmHg 49%
09:00 +32°C° 0 mm 2 mps 752 mmHg 45%
10:00 +35°C° 0 mm 3 mps 752 mmHg 41%
11:00 +37°C° 0 mm 3 mps 753 mmHg 37%
12:00 +37°C° 0 mm 4 mps 752 mmHg 36%
13:00 +37°C° 0 mm 4 mps 752 mmHg 36%
14:00 +37°C° 0 mm 5 mps 752 mmHg 35%
15:00 +37°C° 0 mm 4 mps 752 mmHg 39%
16:00 +36°C° 0 mm 4 mps 752 mmHg 42%
17:00 +36°C° 0 mm 4 mps 752 mmHg 46%
18:00 +33°C° 0 mm 4 mps 752 mmHg 56%
19:00 +30°C° 0 mm 3 mps 752 mmHg 66%
20:00 +28°C° 0 mm 3 mps 752 mmHg 76%
21:00 +27°C° 0 mm 3 mps 752 mmHg 78%
22:00 +27°C° 0 mm 3 mps 752 mmHg 80%
23:00 +26°C° 0 mm 3 mps 752 mmHg 82%

11 July, Saturday

Time Temperature Precipitation Wind Pressure Humidity
00:00 +26°C° 0 mm 2 mps 752 mmHg 81%
01:00 +25°C° 0 mm 2 mps 751 mmHg 80%
02:00 +25°C° 0 mm 1 mps 751 mmHg 79%
03:00 +25°C° 0 mm 1 mps 751 mmHg 76%
04:00 +25°C° 0 mm 1 mps 751 mmHg 72%
05:00 +25°C° 0 mm 1 mps 751 mmHg 69%
06:00 +28°C° 0 mm 2 mps 752 mmHg 60%
07:00 +31°C° 0 mm 2 mps 752 mmHg 50%
08:00 +35°C° 0 mm 3 mps 752 mmHg 41%
09:00 +36°C° 0 mm 3 mps 752 mmHg 38%
10:00 +38°C° 0 mm 4 mps 752 mmHg 35%
11:00 +40°C° 0 mm 4 mps 752 mmHg 32%
12:00 +40°C° 0 mm 4 mps 752 mmHg 31%
13:00 +41°C° 0 mm 5 mps 752 mmHg 30%
14:00 +41°C° 0 mm 5 mps 751 mmHg 29%
15:00 +40°C° 0 mm 4 mps 751 mmHg 31%
16:00 +40°C° 0 mm 4 mps 751 mmHg 34%
17:00 +38°C° 0 mm 4 mps 750 mmHg 36%
18:00 +36°C° 0 mm 4 mps 750 mmHg 45%
19:00 +33°C° 0 mm 4 mps 750 mmHg 54%
20:00 +30°C° 0 mm 3 mps 751 mmHg 63%
21:00 +30°C° 0 mm 3 mps 750 mmHg 64%
22:00 +29°C° 0 mm 4 mps 750 mmHg 65%
23:00 +29°C° 0 mm 4 mps 750 mmHg 67%

12 July, Sunday

Time Temperature Precipitation Wind Pressure Humidity
00:00 +28°C° 0 mm 3 mps 750 mmHg 62%
01:00 +28°C° 0 mm 3 mps 749 mmHg 58%
02:00 +28°C° 0 mm 2 mps 749 mmHg 53%
03:00 +27°C° 0 mm 2 mps 749 mmHg 61%
04:00 +26°C° 0 mm 3 mps 749 mmHg 68%
05:00 +25°C° 0 mm 3 mps 749 mmHg 75%
06:00 +28°C° 0 mm 3 mps 749 mmHg 62%
07:00 +33°C° 0 mm 3 mps 750 mmHg 49%
08:00 +36°C° 0 mm 3 mps 750 mmHg 36%
09:00 +37°C° 0 mm 3 mps 750 mmHg 31%
10:00 +39°C° 0 mm 3 mps 750 mmHg 27%
11:00 +41°C° 0 mm 4 mps 750 mmHg 23%
12:00 +42°C° 0 mm 4 mps 750 mmHg 23%
13:00 +42°C° 0 mm 5 mps 750 mmHg 22%
14:00 +42°C° 0 mm 5 mps 750 mmHg 22%
15:00 +41°C° 0 mm 5 mps 749 mmHg 29%
16:00 +38°C° 0 mm 4 mps 749 mmHg 37%
17:00 +36°C° 0 mm 4 mps 749 mmHg 44%
18:00 +34°C° 0 mm 4 mps 749 mmHg 49%
19:00 +31°C° 0 mm 3 mps 749 mmHg 55%
20:00 +29°C° 0 mm 3 mps 749 mmHg 60%
21:00 +29°C° 0 mm 3 mps 749 mmHg 57%
22:00 +29°C° 0 mm 3 mps 749 mmHg 54%
23:00 +29°C° 0 mm 3 mps 749 mmHg 51%
Show more